GPS BIIR-2 (PRN 13) 1 24876C 97035A 22186.70201389 .00000000 00000+0 00000+0 0 1866 2 24876 55.5133 154.9625 0059060 51.0165 231.7114 2.00563245 18 GPS BIIR-4 (PRN 20) 1 26360C 00025A 22186.70201389 .00000000 00000+0 00000+0 0 1869 2 26360 54.0721 78.1138 0047591 184.0417 187.7682 2.00570890 18 GPS BIIR-6 (PRN 22) 1 26605C 00071A 22186.70201389 .00000000 00000+0 00000+0 0 1862 2 26605 55.0971 151.9473 0136563 254.4926 245.9786 2.00559099 15 GPS BIIR-8 (PRN 16) 1 27663C 03005A 22186.70201389 .00000000 00000+0 00000+0 0 1867 2 27663 55.5000 272.3386 0125424 41.0827 310.2956 2.00563619 11 GPS BIIR-9 (PRN 21) 1 27704C 03010A 22186.70201389 .00000000 00000+0 00000+0 0 1869 2 27704 55.0311 22.5687 0244409 306.5744 261.0221 2.00557117 12 GPS BIIR-11 (PRN 19) 1 28190C 04009A 22186.70201389 .00000000 00000+0 00000+0 0 1868 2 28190 55.9943 333.3242 0090767 121.5770 25.2488 2.00560190 12 GPS BIIR-13 (PRN 02) 1 28474C 04045A 22186.70201389 .00000000 00000+0 00000+0 0 1863 2 28474 55.3576 22.7126 0206052 279.1855 137.5633 2.00561799 18 GPS BIIRM-1 (PRN 17) 1 28874C 05038A 22186.70201389 .00000000 00000+0 00000+0 0 1860 2 28874 56.0598 330.7596 0137511 274.4692 255.4430 2.00575447 17 GPS BIIRM-2 (PRN 31) 1 29486C 06042A 22186.70201389 .00000000 00000+0 00000+0 0 1866 2 29486 54.7137 208.5489 0103621 21.6857 63.4072 2.00552653 17 GPS BIIRM-3 (PRN 12) 1 29601C 06052A 22186.70201389 .00000000 00000+0 00000+0 0 1866 2 29601 55.5076 271.2773 0083389 74.6222 54.3106 2.00552113 10 GPS BIIRM-4 (PRN 15) 1 32260C 07047A 22186.70201389 .00000000 00000+0 00000+0 0 1866 2 32260 53.3192 139.7891 0140206 62.6408 199.7988 2.00573760 17 GPS BIIRM-5 (PRN 29) 1 32384C 07062A 22186.70201389 .00000000 00000+0 00000+0 0 1860 2 32384 56.1793 331.5230 0020956 138.2482 253.2979 2.00563280 14 GPS BIIRM-6 (PRN 07) 1 32711C 08012A 22186.70201389 .00000000 00000+0 00000+0 0 1860 2 32711 54.4740 207.4798 0164624 231.2954 90.2502 2.00566002 16 GPS BIIRM-8 (PRN 05) 1 35752C 09043A 22186.70201389 .00000000 00000+0 00000+0 0 1863 2 35752 55.0840 84.7946 0058862 59.3073 279.3818 2.00554743 19 GPS BIIF-1 (PRN 25) 1 36585C 10022A 22186.70201389 .00000000 00000+0 00000+0 0 1867 2 36585 54.7913 266.7836 0102677 56.9203 39.5262 2.00566265 14 GPS BIIF-2 (PRN 01) 1 37753C 11036A 22186.70201389 .00000000 00000+0 00000+0 0 1861 2 37753 56.6142 27.9946 0118256 52.4432 128.7710 2.00565705 18 GPS BIIF-3 (PRN 24) 1 38833C 12053A 22186.70201389 .00000000 00000+0 00000+0 0 1861 2 38833 53.5294 202.6036 0124347 46.2293 147.3899 2.00562395 15 GPS BIIF-4 (PRN 27) 1 39166C 13023A 22186.70201389 .00000000 00000+0 00000+0 0 1869 2 39166 55.6862 327.1251 0104038 38.5798 256.9295 2.00565756 11 GPS BIIF-5 (PRN 30) 1 39533C 14008A 22186.70201389 .00000000 00000+0 00000+0 0 1861 2 39533 53.6227 208.1118 0060375 209.2578 85.2716 2.00554898 16 GPS BIIF-6 (PRN 06) 1 39741C 14026A 22186.70201389 .00000000 00000+0 00000+0 0 1862 2 39741 56.5755 27.5204 0026463 307.4356 144.4609 2.00554884 13 GPS BIIF-7 (PRN 09) 1 40105C 14045A 22186.70201389 .00000000 00000+0 00000+0 0 1869 2 40105 54.6962 146.0765 0019936 111.1933 281.9244 2.00548569 10 GPS BIIF-8 (PRN 03) 1 40294C 14068A 22186.70201389 .00000000 00000+0 00000+0 0 1863 2 40294 55.8282 87.2158 0041615 55.1623 66.4230 2.00572745 15 GPS BIIF-9 (PRN 26) 1 40534C 15013A 22186.70201389 .00000000 00000+0 00000+0 0 1861 2 40534 53.6923 263.9415 0068877 20.3190 0.6183 2.00551457 15 GPS BIIF-10 (PRN 08) 1 40730C 15033A 22186.70201389 .00000000 00000+0 00000+0 0 1861 2 40730 55.1842 325.9457 0073449 7.9771 254.2331 2.00577612 15 GPS BIIF-11 (PRN 10) 1 41019C 15062A 22186.70201389 .00000000 00000+0 00000+0 0 1864 2 41019 55.8166 87.0589 0078135 217.9954 11.7728 2.00562655 14 GPS BIIF-12 (PRN 32) 1 41328C 16007A 22186.70201389 .00000000 00000+0 00000+0 0 1867 2 41328 54.9131 146.7528 0062112 230.7868 293.5677 2.00570043 13 GPS BIII-1 (PRN 04) 1 43873C 18109A 22186.70201389 .00000000 00000+0 00000+0 0 1869 2 43873 55.0930 149.1753 0019182 195.9247 224.5349 2.00572573 18 GPS BIII-2 (PRN 18) 1 44506C 19056A 22186.70201389 .00000000 00000+0 00000+0 0 1865 2 44506 55.6871 28.3238 0024904 177.7017 143.5931 2.00557622 14 GPS BIII-3 (PRN 23) 1 45854C 20041A 22186.70201389 .00000000 00000+0 00000+0 0 1868 2 45854 55.5348 85.5941 0022970 177.0706 80.5093 2.00558786 15 GPS BIII-4 (PRN 14) 1 46826C 20078A 22186.70201389 .00000000 00000+0 00000+0 0 1868 2 46826 54.5555 269.3573 0020989 188.3998 44.6174 2.00565104 16 GPS BIII-5 (PRN 11) 1 48859C 21054A 22186.70201389 .00000000 00000+0 00000+0 0 1861 2 48859 55.1933 30.3149 0005074 189.8236 227.1654 2.00572692 16